Regional Weather Roundup
Issued by NWS

Home | Current Version | Previous Version | Text Only | Print | Product List | Glossary On
Versions: 1 2 3 4 5 6 7 8 9 10 11 12 13 14 15 16 17 18 19 20 21 22 23 24 25 26 27 28 29 30 31 32 33 34 35 36 37 38 39 40 41 42 43 44 45 46 47 48 49 50
000
ASUS43 KDTX 060910
RWRMI
MICHIGAN HOURLY REGIONAL WEATHER ROUNDUP
NATIONAL WEATHER SERVICE DETROIT/PONTIAC MI
400 AM EST FRI MAR 06 2015

NOTE: "FAIR" INDICATES FEW OR NO CLOUDS BELOW 12,000 FEET WITH NO
SIGNIFICANT WEATHER AND/OR OBSTRUCTION TO VISIBILITY.

MIZ047>049-052>055-059>063-066>070-074>076-081>083-061000-
SOUTHEAST LOWER MICHIGAN

CITY           SKY/WX    TMP DP  RH WIND       PRES   REMARKS
ADRIAN         MOCLDY    -3  -9  75 W3        30.50F
ALMA           MOCLDY     1  -1  88 S6        30.43F
ANN ARBOR      MOCLDY   -10 -13  86 CALM      30.47F
BAD AXE        PTCLDY    -5  -8  86 SW5       30.43F
DETROIT CITY   PTCLDY     9   0  67 CALM      30.49F
DETROIT        PTCLDY     5  -1  76 CALM      30.50F
FLINT          PTCLDY     2  -3  80 SW6       30.45F
GROSSE ILE     MOCLDY     7   0  72 CALM      30.49F
HILLSDALE      PTCLDY     4   0  84 CALM      30.44F
HOWELL         PTCLDY     3   0  87 S7        30.44F

CITY           SKY/WX    TMP DP  RH WIND       PRES   REMARKS
JACKSON        PTCLDY    -2  -6  83 SW6       30.45F
LAMBERTVILLE   PTCLDY     1  -4  78 CALM      30.51S
LANSING          N/A      4  -1  80 S7        30.46F
LAPEER         NOT AVBL
MASON            N/A     -3  -7  82 CALM      30.45F
MONROE         PTCLDY    -2  -8  78 CALM      30.48F
MT. CLEMENS    MOCLDY    -1  -7  76 SW5       30.47S
PONTIAC        MOCLDY    -2  -8  76 CALM      30.44F
PORT HOPE        N/A      1  -5  75 SW6       30.42F
PORT HURON     MOCLDY   -11 -15  84 CALM      30.48S
TRI CITIES     MOCLDY     3  -2  79 SW7       30.44F
YPSILANTI      PTCLDY     0  -6  76 SW5       30.49F
$$
MIZ043>046-050>051-056>058-064>065-071>073-077>080-061000-
SOUTHWEST LOWER MICHIGAN

CITY           SKY/WX    TMP DP  RH WIND       PRES   REMARKS
BATTLE CREEK   MOCLDY     4  -1  80 SW7       30.45F
BENTON HARBOR  CLEAR      5   1  83 S6        30.48F
BIG RAPIDS     MOCLDY    -4  -7  88 CALM      30.37F
COLDWATER      MOCLDY    -5 -10  79 SW3       30.46F
HOLLAND        PTCLDY     4  -1  80 S6        30.45F
GRAND RAPIDS   CLOUDY     8   2  76 S9        30.44F
KALAMAZOO      MOCLDY     1  -3  83 SW7       30.46F
MARSHALL       MOCLDY     3   0  85 SW3       30.45F
MUSKEGON       CLOUDY    16   7  67 SW9       30.43F
$$
MIZ016>042-061000-
NORTHERN LOWER MICHIGAN

CITY           SKY/WX    TMP DP  RH WIND       PRES   REMARKS
ALPENA         PTCLDY     0  -5  79 S7        30.35F
BEAVER ISLAND  CLEAR      8   0  69 SW9       30.29F
BELLAIRE       CLEAR     -4  -8  83 CALM      30.35F
CADILLAC       FLURRIES   0  -3  87 SW5       30.30F
CHARLEVOIX     CLEAR      6   0  77 CALM      30.34F
FRANKFORT      SUNNY     16   6  65 W7        30.35F
GAYLORD        CLEAR     -1  -3  91 CALM      30.26F
GRAYLING       PTCLDY     2  -2  82 SW5       30.31F
HARBOR SPRINGS CLEAR      0  -4  83 CALM      30.30F
HOUGHTON LAKE  PTCLDY     1  -3  83 S7        30.34F
MANISTEE       CLEAR      1  -6  71 E5        30.37F
OSCODA         PTCLDY    -5  -9  81 SW6       30.39F
PELLSTON       PTCLDY     7  -1  70 SW7       30.30F
TRAVERSE CITY  PTCLDY     8   1  73 VRB5      30.34F
$$
MIZ007>008-015-061000-
EASTERN UPPER MICHIGAN

CITY           SKY/WX    TMP DP  RH WIND       PRES   REMARKS
KINROSS        PTCLDY     1   1 100 SW6       30.25F
MACKINAC ISLAN PTCLDY     6   0  78 SW8       30.27F
NEWBERRY       PTCLDY    -1  -5  81 S9        30.21F
S. S. MARIE    MOCLDY    -5 -11  75 NE3       30.26F
$$
MIZ004>006-011>014-085-061000-
CENTRAL UPPER MICHIGAN

CITY           SKY/WX    TMP DP  RH WIND       PRES   REMARKS
MANISTIQUE     PTCLDY     5  -5  63 SW6       30.26F
ESCANABA       CLEAR      1  -8  66 SW6       30.28F
MENOMINEE      PTCLDY     1  -8  66 SW6       30.30F
SAWYER-GWINN   PTCLDY    -1 -11  61 SW9       30.16F
$$
MIZ001>003-009>011-084-061000-
WESTERN UPPER MICHIGAN

CITY           SKY/WX    TMP DP  RH WIND       PRES   REMARKS
IRON MOUNTAIN  PTCLDY     1 -10  60 CALM      30.20F
HOUGHTON       PTCLDY     3  -8  60 SW8       30.08F
COPPER HARBOR    N/A      5 -10  50 W10G21    30.10F WCI -10
IRONWOOD       CLEAR      7   0  72 SW10G18   30.08F WCI  -8
$$

ABBREVIATIONS USED IN REMARKS
   TC - TEMPERATURE IN CELSIUS
  WCI - WIND CHILL INDEX
   HX - HEAT INDEX
  VSB - VISIBILITY




USA.gov is the U.S. government's official web portal to all federal, state and local government web resources and services.